Temperature
18 18 18 18 18 18 18 18 17 17 17 17 17 17 17 17 17 17 17 17 16 16 16 16 16 16 16 16 16 16 16 16 16 16 16 16 16 16 16 15 15 15 15
18 18 18 18 18 18 17 17 17 17 17 17 17 17 17 17 16 17 16 16 16 16 16 16 16 16 16 16 16 16 16 16 16 16 15 15 15 15 15 15 15 15 15
17 18 17 17 17 17 17 17 17 17 17 17 17 16 16 16 16 16 16 16 16 16 16 16 16 16 16 15 15 15 15 15 15 15 15 15 15 15 15 15 15 15 15
17 17 17 17 17 17 17 17 17 17 17 17 16 16 16 16 16 16 16 16 16 16 16 15 15 15 15 15 15 15 15 15 15 14 14 15 15 14 15 15 15 15 15
16 16 17 17 17 17 17 17 17 17 17 16 16 16 16 16 16 16 16 16 16 16 15 15 15 15 15 15 15 15 15 15 14 14 14 14 14 14 14 14 14 14 14
16 16 16 16 17 17 17 17 17 17 16 16 16 16 16 16 16 16 16 16 16 16 15 15 15 15 15 15 15 14 14 14 14 14 14 14 14 14 14 14 14 14 14
16 16 16 16 16 16 16 16 16 16 16 16 16 16 16 16 16 16 15 15 15 15 15 15 15 14 14 14 14 14 14 14 14 14 14 13 13 13 13 13 13 14 14
16 15 16 16 16 16 16 16 16 16 16 16 16 16 16 16 15 15 15 15 15 15 15 14 14 14 14 14 14 14 14 14 13 13 13 13 13 13 13 13 13 13 13
15 15 15 15 16 16 16 16 16 16 16 16 16 15 15 15 15 15 15 15 14 14 14 14 14 14 14 14 14 14 13 13 13 13 13 13 13 13 13 12 12 12 12
15 15 15 15 15 15 15 15 15 15 15 15 15 15 15 15 15 15 14 14 14 14 14 14 14 14 14 13 13 13 13 13 13 13 12 12 12 12 12 12 12 12 12
15 15 15 15 15 15 15 15 15 15 15 15 15 15 15 15 14 14 14 14 14 14 14 13 13 13 13 13 13 12 12 12 12 12 12 12 12 12 12 12 12 12 12
14 14 14 14 14 15 15 15 14 14 15 14 14 14 14 14 14 14 14 13 13 13 13 13 13 13 13 12 12 12 12 12 12 12 11 11 11 11 11 11 11 12 12
14 14 14 14 14 14 14 14 14 14 14 14 14 14 14 14 14 13 13 13 13 13 13 13 13 12 12 12 12 12 11 11 11 11 11 11 11 11 11 11 11 11 11
14 14 13 14 14 14 14 14 14 14 14 14 14 14 14 13 13 13 13 13 12 12 12 12 12 12 12 11 11 11 11 11 11 11 11 11 11 11 11 11 11 11 11
13 13 13 13 14 14 14 14 14 14 14 14 13 13 13 13 13 13 12 12 12 12 12 12 12 11 11 11 11 11 11 11 11 11 10 10 10 10 10 10 10 10 10
13 13 13 13 13 13 14 13 13 13 13 13 13 13 13 13 13 12 12 12 12 12 11 11 11 11 11 11 11 11 10 10 10 10 10 10 10 10 10 10 10 10 10
13 13 13 13 13 13 13 13 13 13 13 13 13 12 12 12 12 12 12 11 11 11 11 11 11 11 11 11 11 10 10 10 10 10 10 9 9 9 10 10 9 9 9
12 12 12 13 13 13 13 13 13 13 13 12 12 12 12 12 12 12 11 11 11 11 11 11 11 11 10 10 10 10 10 10 10 10 9 9 9 9 9 9 9 9 9
12 12 12 12 12 12 12 13 12 12 12 12 12 12 12 12 12 11 11 11 11 11 11 10 10 10 10 10 10 10 10 10 9 9 9 9 9 9 8 9 9 9 9
11 12 12 12 12 12 12 12 12 12 12 12 12 12 12 11 11 11 11 11 11 10 10 10 10 10 10 10 10 10 10 9 9 9 9 9 8 8 8 8 8 8 8
11 11 11 11 11 12 12 12 12 12 12 12 11 11 11 11 11 11 11 10 10 10 10 10 10 10 9 9 9 9 9 9 9 8 8 8 8 8 8 8 8 8 7
10 11 11 11 11 11 11 11 11 11 11 11 11 11 11 11 11 11 11 10 10 10 9 9 9 9 9 9 8 8 8 8 8 8 8 8 8 8 7 7 7 7 7
10 10 10 10 10 10 10 11 11 11 11 10 11 11 11 11 11 11 10 10 10 10 9 9 9 9 8 8 8 7 7 7 7 7 7 7 7 7 7 7 7 7 7
9 9 10 10 10 10 10 10 10 10 10 10 10 10 10 10 10 10 10 10 9 9 9 9 9 8 8 8 7 7 7 7 6 6 7 7 7 7 7 7 6 6 6
8 9 9 9 9 9 9 9 10 10 10 10 10 10 10 10 10 10 10 9 9 9 9 9 8 8 8 7 7 7 6 6 6 6 6 6 6 6 6 6 6 6 6
8 8 8 9 9 9 9 9 9 9 9 9 9 9 9 9 9 9 9 9 9 9 8 8 8 8 8 7 7 7 6 6 6 6 6 5 5 6 6 6 6 6 6
Wind_Speed
10 14 15 15 15 14 14 13 13 12 12 12 12 12 12 12 12 11 11 11 11 11 10 10 10 11 11 11 10 10 9 9 9 8 8 8 8 8 8 8 7 7 7
13 16 16 15 15 14 14 13 12 12 12 12 12 11 11 11 11 11 10 10 10 10 10 10 10 10 10 10 10 10 9 8 7 6 7 7 7 7 8 8 7 6 7
13 16 15 15 15 14 14 13 13 12 12 11 11 11 11 10 10 10 10 10 9 9 9 9 9 9 9 9 9 8 8 7 6 4 4 5 6 7 7 7 7 6 6
13 15 14 15 15 14 14 13 13 12 12 11 11 11 10 10 10 10 10 9 9 9 9 9 9 8 8 8 8 7 7 6 6 6 4 5 6 6 6 7 6 6 6
12 15 15 16 15 15 14 14 13 12 12 11 11 10 10 9 9 9 9 9 8 8 8 8 8 8 8 7 7 6 6 7 7 6 6 7 6 6 6 6 6 5 5
11 15 16 16 15 15 14 14 13 12 12 11 11 10 9 9 9 9 9 8 8 8 8 7 7 7 7 7 6 6 6 7 7 6 6 6 6 6 5 5 5 5 5
10 14 16 16 15 14 14 13 13 12 12 11 11 10 9 9 9 9 9 8 8 7 7 7 6 6 6 6 5 6 6 7 5 5 6 6 6 5 5 6 6 5 5
10 12 14 15 15 14 14 14 13 12 11 11 10 10 9 9 9 9 8 8 7 7 7 6 6 6 5 5 5 5 6 6 5 4 5 5 5 5 5 5 6 6 6
9 10 10 12 13 14 14 13 13 12 11 11 10 9 9 9 8 8 8 7 7 6 6 6 5 5 4 4 4 5 6 6 5 3 4 5 5 4 4 5 5 6 6
8 8 8 9 10 11 12 13 12 12 11 10 10 9 9 8 8 7 7 6 6 5 5 5 5 4 3 3 3 4 6 6 3 3 4 4 4 4 5 5 5 6 6
7 6 7 6 7 8 10 11 11 11 10 10 10 9 8 7 7 6 6 5 5 4 4 4 3 3 2 2 3 4 5 2 2 3 3 3 4 4 5 5 5 6 6
6 5 6 6 6 6 7 8 8 8 8 8 8 7 5 6 5 5 5 5 4 3 3 3 2 2 2 1 2 3 2 2 2 3 3 4 4 5 5 6 6 6 7
5 5 5 5 5 4 4 5 5 5 6 6 7 6 5 5 5 5 4 4 3 3 2 1 1 2 2 2 1 2 2 4 3 3 3 3 3 5 6 6 7 7 7
6 5 5 5 5 4 3 3 4 4 3 4 6 6 4 3 2 2 2 2 2 1 1 0 1 2 2 2 2 2 3 3 3 3 2 2 2 4 6 6 7 7 8
5 5 5 4 4 3 3 2 4 3 3 4 5 5 4 3 2 2 2 2 1 1 1 1 1 1 1 2 2 3 3 2 2 3 2 1 1 3 5 6 7 8 8
5 5 4 4 4 4 3 2 3 3 4 4 5 4 5 3 2 1 1 2 1 1 1 1 1 1 1 1 2 2 2 2 2 2 2 1 1 3 5 6 7 9 9
5 5 4 4 4 4 3 2 2 3 4 3 4 4 4 4 2 1 1 1 1 1 1 1 1 2 2 2 2 2 2 2 2 2 2 1 1 2 4 6 8 9 10
5 5 4 3 3 3 3 2 2 3 4 3 4 4 4 4 3 2 1 1 1 2 2 1 1 1 1 2 2 2 2 1 2 2 2 3 2 2 4 6 8 9 10
5 5 4 3 3 3 3 2 3 3 3 3 4 3 3 3 3 2 1 1 2 2 1 1 1 1 1 2 2 2 2 2 1 2 2 2 2 2 3 5 7 8 10
5 5 4 3 3 3 3 2 2 3 2 3 3 3 3 3 2 2 1 1 2 1 0 1 1 2 1 1 2 3 3 2 1 1 2 2 3 4 4 4 5 6 9
5 5 4 4 3 3 2 2 2 2 1 2 2 3 3 3 2 2 1 1 1 1 0 1 1 1 1 1 2 2 3 2 1 1 1 2 3 4 4 4 4 4 6
4 4 4 3 3 3 2 2 1 2 1 2 2 3 3 3 2 1 1 1 1 1 1 1 1 1 1 2 1 1 2 3 3 3 2 2 2 3 3 5 5 5 5
3 3 3 3 3 3 3 2 3 3 2 2 1 1 1 2 2 2 1 1 1 1 1 1 1 1 0 2 1 0 1 2 4 3 2 2 3 3 3 3 4 5 6
3 3 3 3 3 3 3 3 3 2 1 1 1 1 1 2 2 2 1 1 1 1 1 1 1 0 1 1 1 1 1 1 1 3 3 3 3 3 4 4 4 4 6
3 3 2 3 3 3 3 2 2 2 1 1 1 1 1 1 2 2 2 1 1 1 2 2 1 1 1 1 1 1 1 1 1 2 4 4 4 3 3 3 2 3 5
3 3 2 3 2 2 2 2 2 2 2 2 1 1 1 1 1 1 1 1 0 1 2 2 2 1 1 1 1 1 1 1 2 2 3 4 4 4 4 3 2 2 4
Wind_Direction
123 128 134 131 129 124 122 119 115 111 107 102 99 96 93 90 89 85 82 80 78 76 75 73 70 69 68 66 63 63 62 62 60 57 56 59 62 60 56 55 58 57 58
125 130 134 132 130 126 123 120 116 112 109 105 102 100 97 93 90 88 85 83 79 75 74 74 72 71 69 67 64 61 61 59 58 59 56 58 61 59 57 58 59 58 52
121 128 133 131 129 126 124 120 116 114 112 109 105 102 99 95 92 89 87 85 81 76 75 74 73 71 68 67 63 60 55 47 42 44 45 67 67 62 59 57 53 53 47
122 128 133 131 128 125 124 120 117 116 114 111 107 105 102 98 93 89 86 83 80 77 75 72 71 70 68 63 59 53 42 30 19 15 37 58 58 59 59 54 47 46 43
117 124 129 130 127 125 124 122 120 118 116 113 109 107 104 101 97 91 87 83 79 77 74 70 70 68 64 59 50 40 28 18 13 20 40 54 52 51 49 49 43 39 33
117 121 128 129 128 126 125 124 123 120 118 115 112 108 105 102 98 91 87 83 79 75 73 70 68 66 61 53 42 29 17 12 12 26 37 51 55 48 41 38 36 30 21
117 121 130 131 130 128 127 126 125 123 121 117 112 108 105 102 97 93 89 84 79 75 72 69 67 66 57 47 34 20 10 8 8 29 41 50 52 45 38 32 29 21 13
113 116 130 132 130 129 128 127 125 123 121 118 114 110 107 106 101 96 90 84 80 76 73 69 64 60 53 41 26 12 1 357 10 28 43 55 47 37 28 22 18 11 5
103 111 120 131 131 131 130 129 127 126 124 123 119 113 110 109 106 100 93 85 80 76 71 66 59 54 46 31 14 359 351 345 356 17 43 52 46 32 20 13 5 358 352
105 109 117 123 129 132 131 131 131 131 129 128 125 120 116 115 110 105 99 91 84 77 71 64 54 45 35 18 355 338 335 341 3 44 57 48 45 28 14 1 350 342 338
113 116 114 114 116 126 133 137 136 137 135 133 131 130 126 120 114 111 108 105 94 84 73 62 47 33 20 354 331 321 320 332 1 63 71 51 34 13 360 350 340 334 333
118 119 118 115 110 116 134 138 142 142 140 134 128 128 121 113 112 112 120 123 107 93 75 54 22 5 349 310 313 308 300 330 17 67 73 60 25 359 347 339 333 329 328
123 111 110 113 109 107 119 135 137 135 137 135 131 130 117 109 108 109 113 114 108 101 79 40 339 320 330 341 326 310 346 11 24 53 76 67 23 353 339 335 334 330 328
109 105 104 105 106 104 103 132 132 127 129 131 135 133 115 105 103 107 110 110 106 94 70 351 279 312 343 349 340 346 22 27 24 50 83 70 20 346 337 335 336 331 326
106 105 104 107 112 105 103 129 133 128 132 132 128 131 116 109 124 117 122 110 92 48 34 308 312 18 3 358 351 12 27 30 23 42 72 60 16 349 340 338 336 333 328
111 107 102 108 108 110 115 119 123 129 130 125 125 130 125 114 111 114 108 109 84 33 4 345 347 20 352 7 357 15 26 17 26 41 60 44 13 344 334 335 335 332 329
113 108 107 110 102 111 115 115 114 130 125 121 127 129 118 111 111 106 112 101 70 34 33 16 27 32 11 7 351 355 12 20 16 17 14 25 21 335 323 326 328 327 327
111 104 102 102 105 104 106 111 108 110 114 120 126 123 118 111 101 78 88 86 65 55 43 40 44 37 7 356 345 333 354 4 353 1 3 2 5 352 332 321 321 325 326
114 110 104 96 98 99 98 93 95 92 105 110 115 112 118 117 107 84 86 63 65 63 48 24 27 28 8 357 341 339 333 329 321 344 351 354 348 344 341 333 331 328 326
108 109 107 101 95 94 83 90 89 95 94 90 102 113 121 115 106 85 89 94 87 85 48 44 34 18 9 350 344 335 311 293 317 329 359 3 346 344 345 344 338 330 328
99 102 104 101 102 101 98 100 124 129 122 103 87 95 112 115 114 98 71 96 105 139 144 90 86 44 7 7 9 339 319 301 342 338 3 347 347 348 343 339 332 332 332
100 104 108 103 112 116 107 105 120 124 129 116 80 81 87 84 92 105 98 125 101 110 73 65 70 64 1 15 14 351 342 334 342 322 329 330 339 343 344 340 339 340 341
101 105 107 104 106 106 100 88 80 73 70 68 84 116 86 90 84 87 95 126 125 139 148 168 144 92 228 322 355 60 14 305 323 316 327 344 341 336 332 339 339 349 346
97 99 102 98 99 97 100 102 114 112 131 164 148 149 121 93 89 88 110 111 138 148 161 183 175 201 171 236 306 334 290 286 315 312 320 330 334 331 330 334 337 339 337
94 94 96 101 90 94 101 114 125 121 113 92 97 101 121 122 104 86 87 92 158 176 176 181 206 215 193 212 247 318 318 313 279 278 300 317 323 319 327 323 327 333 330
97 94 90 101 93 83 95 108 109 108 104 99 92 131 145 133 135 81 65 76 95 189 193 193 195 208 223 239 263 285 288 291 297 293 296 309 310 312 320 325 326 324 330
Height
1504 1506 1508 1510 1513 1514 1516 1518 1520 1521 1522 1524 1525 1526 1527 1527 1528 1529 1529 1530 1530 1531 1531 1531 1532 1532 1532 1532 1532 1532 1532 1533 1533 1533 1533 1533 1533 1533 1533 1533 1533 1533 1533
1503 1505 1508 1510 1513 1515 1517 1519 1520 1522 1523 1524 1525 1526 1527 1528 1528 1529 1530 1530 1531 1531 1531 1531 1532 1532 1532 1532 1532 1532 1533 1533 1533 1533 1533 1533 1533 1533 1533 1533 1533 1533 1533
1503 1505 1508 1510 1513 1515 1517 1519 1520 1522 1523 1525 1526 1527 1527 1528 1529 1530 1530 1530 1531 1531 1531 1531 1532 1532 1532 1532 1532 1533 1533 1533 1533 1533 1533 1533 1533 1533 1533 1533 1533 1533 1532
1503 1505 1508 1510 1513 1515 1517 1519 1521 1522 1524 1525 1526 1527 1528 1529 1529 1530 1530 1531 1531 1531 1531 1532 1532 1532 1532 1532 1532 1532 1533 1533 1533 1533 1533 1532 1532 1533 1532 1532 1532 1532 1532
1504 1505 1508 1510 1513 1515 1517 1519 1521 1522 1524 1525 1526 1527 1528 1529 1530 1530 1530 1531 1531 1531 1531 1531 1532 1532 1532 1532 1532 1532 1533 1533 1532 1532 1532 1532 1532 1532 1532 1531 1531 1531 1531
1504 1506 1508 1511 1513 1515 1517 1519 1521 1523 1524 1525 1526 1527 1528 1529 1530 1530 1530 1531 1531 1531 1531 1531 1531 1531 1532 1532 1532 1532 1532 1532 1532 1532 1531 1531 1531 1531 1531 1530 1530 1530 1530
1505 1506 1509 1511 1513 1515 1517 1519 1521 1523 1524 1525 1527 1528 1528 1529 1530 1530 1530 1531 1531 1531 1531 1531 1531 1531 1531 1531 1531 1531 1531 1531 1531 1531 1530 1530 1530 1530 1530 1529 1529 1529 1528
1505 1506 1509 1511 1513 1515 1517 1519 1521 1523 1524 1525 1526 1527 1528 1529 1529 1530 1530 1530 1530 1530 1530 1530 1530 1530 1530 1530 1531 1531 1531 1530 1530 1530 1530 1529 1529 1529 1529 1529 1528 1527 1527
1505 1506 1508 1511 1513 1515 1517 1519 1521 1522 1524 1525 1526 1527 1528 1529 1529 1530 1530 1530 1530 1530 1530 1530 1530 1530 1530 1530 1530 1530 1530 1529 1529 1529 1529 1528 1528 1528 1528 1527 1527 1526 1526
1505 1506 1508 1510 1512 1515 1517 1519 1520 1522 1524 1525 1526 1527 1528 1528 1529 1529 1529 1529 1529 1529 1529 1529 1529 1529 1529 1529 1529 1529 1529 1528 1528 1528 1528 1527 1527 1527 1526 1526 1525 1525 1524
1505 1507 1508 1510 1512 1514 1516 1518 1520 1521 1523 1524 1525 1526 1527 1528 1528 1528 1529 1529 1529 1529 1529 1529 1528 1528 1528 1528 1528 1528 1528 1527 1527 1527 1526 1526 1526 1525 1525 1524 1523 1523 1522
1504 1506 1508 1509 1511 1513 1515 1517 1519 1520 1522 1523 1524 1525 1526 1527 1527 1528 1528 1528 1528 1528 1528 1528 1528 1528 1528 1527 1527 1527 1527 1526 1526 1526 1525 1525 1524 1524 1523 1522 1522 1521 1520
1504 1505 1507 1509 1511 1512 1514 1516 1518 1519 1521 1522 1524 1525 1525 1526 1526 1527 1527 1527 1527 1527 1527 1527 1527 1527 1527 1527 1526 1526 1526 1525 1525 1525 1524 1524 1523 1522 1521 1520 1520 1519 1518
1503 1504 1506 1508 1509 1511 1513 1515 1517 1518 1520 1521 1522 1523 1524 1525 1525 1526 1526 1526 1526 1526 1526 1526 1526 1526 1526 1526 1526 1525 1525 1524 1524 1524 1523 1522 1522 1521 1520 1519 1518 1517 1516
1502 1503 1505 1506 1508 1510 1511 1513 1515 1517 1518 1520 1521 1522 1523 1524 1524 1525 1525 1525 1525 1525 1525 1525 1525 1525 1525 1525 1525 1524 1524 1523 1523 1523 1522 1521 1520 1519 1518 1517 1516 1515 1514
1500 1502 1504 1505 1507 1509 1510 1512 1513 1515 1517 1519 1520 1521 1522 1522 1523 1523 1524 1524 1524 1524 1524 1524 1524 1524 1524 1524 1523 1523 1522 1522 1522 1521 1520 1520 1519 1518 1516 1515 1514 1513 1511
1499 1501 1502 1504 1506 1507 1509 1511 1512 1514 1516 1517 1518 1520 1520 1521 1522 1522 1522 1523 1523 1523 1523 1523 1523 1523 1523 1523 1522 1522 1521 1521 1521 1520 1519 1518 1517 1516 1515 1514 1512 1511 1510
1498 1499 1501 1502 1504 1506 1507 1509 1511 1512 1514 1516 1517 1518 1519 1519 1520 1521 1521 1521 1522 1522 1522 1522 1522 1522 1521 1521 1521 1520 1520 1520 1519 1518 1518 1517 1516 1514 1513 1512 1511 1509 1508
1496 1498 1499 1501 1502 1504 1506 1508 1509 1511 1513 1514 1515 1516 1517 1518 1519 1519 1519 1520 1520 1520 1520 1521 1520 1520 1520 1520 1519 1519 1518 1518 1518 1517 1516 1515 1514 1513 1512 1510 1509 1507 1505
1495 1496 1497 1499 1500 1502 1504 1506 1507 1509 1511 1513 1514 1515 1516 1516 1517 1517 1518 1518 1519 1519 1519 1519 1519 1519 1519 1518 1518 1517 1517 1517 1516 1516 1515 1514 1513 1511 1510 1508 1507 1505 1503
1493 1494 1495 1497 1498 1500 1501 1503 1505 1507 1509 1510 1512 1513 1514 1515 1516 1516 1516 1517 1517 1517 1517 1517 1517 1517 1517 1516 1516 1515 1515 1515 1515 1514 1513 1512 1511 1510 1508 1506 1505 1503 1501
1491 1492 1494 1495 1496 1498 1499 1501 1503 1505 1507 1508 1510 1511 1512 1513 1514 1514 1514 1514 1515 1515 1515 1516 1516 1515 1515 1515 1515 1513 1513 1514 1513 1512 1512 1510 1509 1508 1506 1505 1503 1501 1499
1489 1490 1492 1493 1495 1496 1498 1499 1501 1503 1504 1506 1507 1509 1510 1511 1511 1512 1512 1512 1513 1513 1513 1514 1514 1514 1514 1515 1515 1515 1514 1512 1511 1511 1510 1509 1508 1506 1504 1502 1501 1499 1496
1488 1489 1491 1492 1493 1495 1496 1497 1498 1500 1502 1503 1505 1506 1508 1508 1509 1510 1510 1510 1511 1511 1511 1512 1512 1513 1513 1513 1513 1513 1514 1513 1511 1509 1508 1507 1506 1504 1502 1500 1498 1496 1494
1487 1488 1489 1490 1492 1493 1494 1495 1497 1498 1500 1502 1503 1504 1505 1506 1507 1507 1508 1508 1509 1509 1509 1510 1510 1511 1511 1511 1511 1511 1511 1511 1510 1509 1505 1504 1503 1502 1500 1498 1496 1494 1492
1485 1486 1487 1489 1490 1491 1493 1494 1495 1496 1498 1499 1500 1501 1502 1503 1504 1505 1506 1506 1507 1507 1507 1508 1508 1509 1509 1509 1509 1509 1509 1508 1507 1507 1505 1502 1500 1499 1498 1496 1494 1492 1490